SL-8 R/B - Orbit

View from above orbital plane
View from above orbital plane
View from above satellite
View from above satellite

Ground track
Ground track

The orbit data is extracted from the following two-line orbital elements,

1 32751U 08014B   13168.31766779  .00010110  00000-0  24823-3 0  5672
2 32751 098.1333 069.6671 0020995 030.0975 085.0927 15.40688119291254
Epoch (UTC): 17 June 2013 07:37:26
Eccentricity: 0.0020995
inclination: 98.1333°
perigee height: 430 km
apogee height: 458 km
right ascension of ascending node: 69.6671°
argument of perigee: 30.0975°
revolutions per day: 15.40688119
mean anomaly at epoch: 85.0927°
orbit number at epoch: 29125

The dashed part of the orbit path shows where the satellite is in the earth's shadow,  

Developed and maintained by Chris Peat, Heavens-Above GmbH. Please read the updated FAQ before sending e-mail. Imprint. DLR